• In Hungary
  • List of Countries
  • For 7 days
  • Water Temperature
  • Satellite Maps
  • Weather Map
  • News
  • Weather Widgets
  • user-avatar
    Login

    Hourly Weather Surowo

    Today, 23 September, Sunday

    Time Temperature Precipitation Wind Pressure Humidity
    00:00 +9°C° 0 mm 3 mps 749 mmHg 81%
    01:00 +9°C° 0 mm 3 mps 749 mmHg 81%
    02:00 +9°C° 0 mm 3 mps 749 mmHg 82%
    03:00 +8°C° 0 mm 3 mps 749 mmHg 82%
    04:00 +8°C° 0 mm 3 mps 749 mmHg 82%
    05:00 +8°C° 0 mm 3 mps 749 mmHg 82%
    06:00 +9°C° 0 mm 3 mps 749 mmHg 79%
    07:00 +10°C° 0 mm 4 mps 749 mmHg 76%
    08:00 +11°C° 0 mm 4 mps 748 mmHg 73%
    09:00 +12°C° 0 mm 4 mps 748 mmHg 67%
    10:00 +14°C° 0 mm 5 mps 748 mmHg 60%
    11:00 +16°C° 0 mm 5 mps 748 mmHg 53%
    12:00 +15°C° 0.2 mm 5 mps 748 mmHg 56%
    13:00 +15°C° 0.2 mm 5 mps 748 mmHg 58%
    14:00 +15°C° 0.2 mm 5 mps 748 mmHg 60%
    15:00 +15°C° 0 mm 5 mps 747 mmHg 61%
    16:00 +15°C° 0 mm 4 mps 747 mmHg 62%
    17:00 +16°C° 0 mm 3 mps 746 mmHg 63%
    18:00 +14°C° 0.1 mm 3 mps 746 mmHg 67%
    19:00 +13°C° 0.1 mm 3 mps 745 mmHg 71%
    20:00 +13°C° 0.1 mm 2 mps 745 mmHg 76%
    21:00 +12°C° 1.5 mm 3 mps 744 mmHg 81%
    22:00 +12°C° 1.5 mm 3 mps 742 mmHg 85%
    23:00 +11°C° 1.5 mm 4 mps 741 mmHg 90%

    Tomorrow, 24 September, Monday

    Time Temperature Precipitation Wind Pressure Humidity
    00:00 +11°C° 3.4 mm 4 mps 740 mmHg 91%
    01:00 +11°C° 3.4 mm 4 mps 739 mmHg 92%
    02:00 +11°C° 3.4 mm 4 mps 737 mmHg 93%
    03:00 +12°C° 2.2 mm 4 mps 737 mmHg 94%
    04:00 +12°C° 2.2 mm 4 mps 736 mmHg 94%
    05:00 +12°C° 2.2 mm 4 mps 735 mmHg 95%
    06:00 +10°C° 0.7 mm 6 mps 736 mmHg 92%
    07:00 +10°C° 0.7 mm 8 mps 738 mmHg 89%
    08:00 +8°C° 0.7 mm 9 mps 739 mmHg 87%
    09:00 +10°C° 0.2 mm 9 mps 740 mmHg 81%
    10:00 +10°C° 0.2 mm 9 mps 741 mmHg 75%
    11:00 +11°C° 0.2 mm 9 mps 742 mmHg 69%
    12:00 +12°C° 0.3 mm 9 mps 743 mmHg 67%
    13:00 +12°C° 0.3 mm 9 mps 744 mmHg 66%
    14:00 +12°C° 0.3 mm 9 mps 744 mmHg 64%
    15:00 +12°C° 0.1 mm 8 mps 744 mmHg 63%
    16:00 +11°C° 0.1 mm 8 mps 745 mmHg 62%
    17:00 +11°C° 0.1 mm 8 mps 745 mmHg 61%
    18:00 +10°C° 0 mm 7 mps 746 mmHg 63%
    19:00 +9°C° 0 mm 7 mps 746 mmHg 66%
    20:00 +8°C° 0 mm 6 mps 747 mmHg 68%
    21:00 +8°C° 0.3 mm 7 mps 747 mmHg 73%
    22:00 +8°C° 0.3 mm 7 mps 748 mmHg 78%
    23:00 +6°C° 0.3 mm 7 mps 748 mmHg 83%

    Day after tomorrow, 25 September, Tuesday

    Time Temperature Precipitation Wind Pressure Humidity
    00:00 +6°C° 0.6 mm 7 mps 749 mmHg 82%
    01:00 +5°C° 0.6 mm 7 mps 750 mmHg 81%
    02:00 +5°C° 0.6 mm 7 mps 751 mmHg 81%
    03:00 +4°C° 0 mm 7 mps 752 mmHg 81%
    04:00 +4°C° 0 mm 6 mps 752 mmHg 81%
    05:00 +3°C° 0 mm 6 mps 753 mmHg 81%
    06:00 +4°C° 0 mm 6 mps 754 mmHg 79%
    07:00 +4°C° 0 mm 6 mps 754 mmHg 77%
    08:00 +4°C° 0 mm 7 mps 755 mmHg 75%
    09:00 +6°C° 0.1 mm 7 mps 755 mmHg 70%
    10:00 +8°C° 0.1 mm 7 mps 756 mmHg 64%
    11:00 +9°C° 0.1 mm 8 mps 756 mmHg 58%
    12:00 +9°C° 0.2 mm 8 mps 756 mmHg 57%
    13:00 +10°C° 0.2 mm 8 mps 757 mmHg 56%
    14:00 +10°C° 0.2 mm 8 mps 757 mmHg 55%
    15:00 +10°C° 0.1 mm 7 mps 757 mmHg 56%
    16:00 +9°C° 0.1 mm 7 mps 758 mmHg 58%
    17:00 +9°C° 0.1 mm 6 mps 758 mmHg 59%
    18:00 +8°C° 0 mm 5 mps 759 mmHg 62%
    19:00 +7°C° 0 mm 5 mps 759 mmHg 65%
    20:00 +6°C° 0 mm 4 mps 760 mmHg 68%
    21:00 +6°C° 0 mm 4 mps 761 mmHg 70%
    22:00 +5°C° 0 mm 4 mps 761 mmHg 71%
    23:00 +5°C° 0 mm 4 mps 762 mmHg 72%

    26 September, Wednesday

    Time Temperature Precipitation Wind Pressure Humidity
    00:00 +5°C° 0 mm 3 mps 762 mmHg 74%
    01:00 +4°C° 0 mm 3 mps 762 mmHg 75%
    02:00 +4°C° 0 mm 3 mps 763 mmHg 77%
    03:00 +4°C° 0 mm 3 mps 762 mmHg 76%
    04:00 +3°C° 0 mm 3 mps 762 mmHg 75%
    05:00 +3°C° 0 mm 3 mps 762 mmHg 74%
    06:00 +4°C° 0 mm 3 mps 762 mmHg 70%
    07:00 +5°C° 0 mm 4 mps 763 mmHg 67%
    08:00 +5°C° 0 mm 4 mps 763 mmHg 63%
    09:00 +7°C° 0 mm 5 mps 762 mmHg 59%
    10:00 +9°C° 0 mm 5 mps 762 mmHg 56%
    11:00 +10°C° 0 mm 6 mps 762 mmHg 52%
    12:00 +11°C° 0 mm 6 mps 761 mmHg 50%
    13:00 +13°C° 0 mm 6 mps 761 mmHg 47%
    14:00 +12°C° 0 mm 7 mps 760 mmHg 45%
    15:00 +13°C° 0 mm 6 mps 760 mmHg 47%
    16:00 +12°C° 0 mm 5 mps 759 mmHg 48%
    17:00 +12°C° 0 mm 5 mps 758 mmHg 50%
    18:00 +10°C° 0.1 mm 5 mps 758 mmHg 54%
    19:00 +10°C° 0.1 mm 5 mps 758 mmHg 57%
    20:00 +9°C° 0.1 mm 5 mps 758 mmHg 61%
    21:00 +9°C° 0.1 mm 5 mps 757 mmHg 62%
    22:00 +9°C° 0.1 mm 5 mps 757 mmHg 63%
    23:00 +9°C° 0.1 mm 5 mps 757 mmHg 64%

    27 September, Thursday

    Time Temperature Precipitation Wind Pressure Humidity
    00:00 +10°C° 0 mm 6 mps 756 mmHg 61%
    01:00 +10°C° 0 mm 6 mps 755 mmHg 58%
    02:00 +10°C° 0 mm 6 mps 755 mmHg 55%
    03:00 +10°C° 0 mm 6 mps 754 mmHg 54%
    04:00 +11°C° 0 mm 7 mps 754 mmHg 52%
    05:00 +11°C° 0 mm 7 mps 753 mmHg 51%
    06:00 +11°C° 0 mm 7 mps 753 mmHg 52%
    07:00 +11°C° 0 mm 7 mps 753 mmHg 53%
    08:00 +11°C° 0 mm 7 mps 753 mmHg 54%
    09:00 +12°C° 0 mm 8 mps 752 mmHg 54%
    10:00 +13°C° 0 mm 8 mps 752 mmHg 53%
    11:00 +15°C° 0 mm 8 mps 752 mmHg 53%
    12:00 +16°C° 0 mm 8 mps 752 mmHg 54%
    13:00 +17°C° 0 mm 8 mps 751 mmHg 54%
    14:00 +18°C° 0 mm 8 mps 751 mmHg 55%
    15:00 +18°C° 0 mm 8 mps 751 mmHg 58%
    16:00 +18°C° 0 mm 7 mps 750 mmHg 61%
    17:00 +17°C° 0 mm 6 mps 750 mmHg 64%
    18:00 +17°C° 0 mm 6 mps 750 mmHg 66%
    19:00 +16°C° 0 mm 6 mps 750 mmHg 69%
    20:00 +16°C° 0 mm 6 mps 750 mmHg 71%
    21:00 +15°C° 0.1 mm 6 mps 750 mmHg 73%
    22:00 +15°C° 0.1 mm 6 mps 750 mmHg 76%
    23:00 +15°C° 0.1 mm 6 mps 750 mmHg 78%

    28 September, Friday

    Time Temperature Precipitation Wind Pressure Humidity
    00:00 +15°C° 0.1 mm 6 mps 749 mmHg 80%
    01:00 +14°C° 0.1 mm 5 mps 749 mmHg 82%
    02:00 +14°C° 0.1 mm 4 mps 749 mmHg 84%
    03:00 +14°C° 0.3 mm 4 mps 749 mmHg 86%
    04:00 +13°C° 0.3 mm 4 mps 748 mmHg 87%
    05:00 +13°C° 0.3 mm 4 mps 748 mmHg 89%
    06:00 +13°C° 0.7 mm 5 mps 748 mmHg 88%
    07:00 +11°C° 0.7 mm 6 mps 748 mmHg 86%
    08:00 +10°C° 0.7 mm 7 mps 748 mmHg 85%
    09:00 +10°C° 0.1 mm 6 mps 749 mmHg 81%
    10:00 +10°C° 0.1 mm 5 mps 750 mmHg 77%
    11:00 +11°C° 0.1 mm 4 mps 751 mmHg 73%
    12:00 +12°C° 0 mm 4 mps 751 mmHg 66%
    13:00 +13°C° 0 mm 4 mps 751 mmHg 59%
    14:00 +14°C° 0 mm 5 mps 751 mmHg 53%
    15:00 +14°C° 0 mm 4 mps 751 mmHg 53%
    16:00 +13°C° 0 mm 4 mps 751 mmHg 53%
    17:00 +13°C° 0 mm 3 mps 751 mmHg 53%
    18:00 +12°C° 0 mm 3 mps 752 mmHg 54%
    19:00 +12°C° 0 mm 2 mps 752 mmHg 55%
    20:00 +10°C° 0 mm 2 mps 753 mmHg 56%
    21:00 +11°C° 0 mm 1 mps 753 mmHg 57%
    22:00 +10°C° 0 mm 1 mps 753 mmHg 58%
    23:00 +9°C° 0 mm 1 mps 753 mmHg 59%
    Show more